CAPE
1843 1699 1542 1488 1656 1784 1618 1607 1641 1826 2116 2058 2070 2291 2304 2552 2729 2774 2870 2914 2749 2696 2728 3009 3234 2614 2959 2909 2963 3013 3397 2935 2845 3201 3345 3336 3368 3445 3411 3304 2981 2758
1888 1524 1666 1323 1592 1868 1736 1796 1768 1736 1878 2091 2450 2260 2300 2276 2452 2675 2744 2777 2844 2661 2671 2990 3147 2589 2757 2796 2868 3008 3235 2967 2767 3411 2907 2974 3128 3326 3306 3080 2739 2516
1824 1554 1887 1279 1663 1712 1830 1884 2031 1867 1792 1799 2181 2575 2379 2334 2236 2272 2484 2632 2753 2687 2941 3037 3029 2747 2866 2773 2878 2798 2857 2758 2642 2486 3017 2725 3005 3368 3227 2987 2612 2369
1674 1699 1733 1550 1621 1636 1672 1654 1862 2124 1981 1896 1900 2296 2416 2612 2268 2114 2116 3106 2698 2760 3014 3244 3133 3002 3143 2996 2849 2777 2588 2421 2271 2323 2682 2789 3347 3521 3314 2832 3180 3150
1596 1729 1605 1743 1674 1706 1706 1641 1577 1764 1993 2014 1982 1952 2042 2265 2463 2342 2094 2582 2690 2804 3082 3298 3257 3100 3265 3287 2906 2812 2913 2600 2586 2951 2977 2732 2765 3595 3575 3162 2757 2655
1614 1614 1694 1562 1708 1741 1748 1691 1635 1581 1748 1863 1911 1873 1924 1916 2234 2545 2364 2472 2589 2666 3042 3298 3283 3160 3209 3337 3365 3094 3063 3139 3038 3069 3131 3029 2880 3398 3963 3609 3261 2872
1605 1484 1634 1612 1518 1623 1650 1694 1707 1657 1620 1688 1818 1961 1894 1831 1884 2390 2471 2476 2432 2522 2781 3046 3207 3153 3024 3206 3215 3164 3013 3014 3180 3250 3260 3264 3238 3059 3335 3376 2968 2816
1523 1387 1452 1577 1539 1416 1487 1508 1579 1660 1658 1582 1571 1584 1805 1911 1825 1818 2490 2486 2394 2377 2601 2726 2957 3037 2885 3055 3085 2979 2845 2645 2591 2845 3006 3123 3166 3066 3053 2934 2702 2624
1326 1284 1315 1436 1515 1464 1350 1350 1385 1332 1288 1401 1393 1345 1380 1489 1734 1761 1874 2456 2461 2322 2395 2502 2598 2749 2786 2850 3038 3020 2938 2759 2430 2436 2507 2679 2773 2831 2814 2760 2634 2505
1846 1372 1230 1254 1329 1425 1432 1323 1297 1281 1099 1012 1118 1174 1235 1304 1424 1756 1767 2057 2352 2404 2379 2414 2407 2388 2506 2652 2846 2959 2871 2682 2467 2415 2490 2491 2575 2665 2696 2715 2584 2318
2076 1913 1683 1384 1196 1194 1217 1222 1206 1254 1156 946 920 952 1008 1184 1232 1550 1784 1860 2014 2159 2288 2296 2207 2141 2250 2389 2532 2644 2657 2557 2449 2380 2426 2540 2617 2648 3011 2628 2589 2421
1910 1964 1970 1852 1610 1280 1245 1140 1094 1166 1236 1045 866 898 828 866 1058 1138 1623 1806 1838 1882 1930 1972 1968 1954 1980 2112 2195 2257 2371 2410 2404 2336 2264 2297 2386 2492 2522 2560 2549 2497
1709 1862 1925 1952 1847 1597 1341 1272 1189 1134 1181 1167 912 825 808 746 823 1007 1117 1488 1797 1836 1847 1865 1877 1856 1836 1898 1970 1992 2086 2214 2234 2194 2126 2119 2204 2262 2272 2220 2258 2378
1600 1672 1757 1944 1988 1876 1616 1416 1276 1211 1111 1062 1005 853 706 720 721 787 975 1024 1188 1574 1763 1829 1873 1842 1767 1729 1790 1816 1842 1939 2039 2022 1992 1936 1988 2161 2255 2227 2143 2166
1468 1291 1419 1729 1757 1463 1632 1526 1322 1134 1118 1065 925 823 754 665 637 571 404 827 934 1018 1347 1631 1803 1844 1806 1760 1626 1663 1627 1588 1649 1867 1938 1924 1868 1815 1865 2023 2089 2090
1490 1390 1159 1171 1348 1363 1210 1294 1250 1140 1011 993 850 733 671 596 584 591 494 492 711 908 984 1184 1480 1699 1729 1656 1573 1536 1515 1423 1332 1258 1364 1527 1672 1729 1679 1617 1664 1726
1227 1216 1249 1263 1203 1147 921 868 1020 1112 1129 1003 820 593 466 450 544 578 542 529 500 827 950 981 1049 1219 1434 1530 1516 1554 1540 1470 1428 1430 1399 1380 1395 1414 1386 1402 1431 1486
1481 1537 1342 1218 1144 1003 883 940 946 929 1043 1155 1062 798 551 327 416 540 568 556 527 463 750 909 945 994 1128 1322 1425 1436 1451 1484 1398 1372 1386 1435 1466 1494 1532 1561 1505 1452
1695 1676 1490 1313 1290 1334 1280 1162 1074 951 934 941 853 958 830 499 224 830 819 635 560 490 370 646 848 873 969 1081 1213 1289 1324 1352 1373 1341 1286 1257 1287 1352 1426 1492 1534 1506
1414 1597 1680 1806 1959 1731 1642 1490 1352 1178 1048 1117 1196 1329 959 692 434 500 675 903 962 622 15 137 510 742 810 885 1003 1119 1203 1249 1279 1414 1458 1434 1387 1345 1323 1322 1319 1320
1474 1402 1465 1547 1665 1871 1846 1630 1573 1552 1502 1506 1502 1427 1253 1196 1050 823 718 854 1034 1273 1290 545 218 239 517 713 781 928 1078 1163 1186 1259 1408 1474 1499 1491 1458 1360 1207 1097
1217 1247 1238 1263 1298 1333 1562 1738 1750 1749 1601 1676 1702 1653 1480 1353 1378 1303 1256 1157 1035 1046 1053 1014 1211 1111 760 217 210 710 781 924 1129 1254 1302 1349 1392 1437 1433 1406 1329 1175
780 928 961 1051 1078 1177 1290 1298 1409 1513 1693 1987 1967 1900 1866 1751 1659 1563 1467 1360 1301 1253 1122 956 903 1087 1123 1121 1107 984 230 150 533 800 882 920 968 1097 1204 1255 1275 1244
349 586 701 702 789 876 980 1087 1076 1184 1263 1385 1402 1671 1800 1944 1912 1812 1600 1459 1419 1442 1414 1356 1258 1036 922 1072 1140 1238 1282 1205 975 724 513 30 12 171 412 828 998 1099
388 381 359 555 664 751 826 850 800 959 1016 1098 1187 1304 1380 1436 1693 1722 1725 1632 1498 1491 1472 1463 1476 1424 1228 1031 934 979 1075 1157 1248 1332 1367 1393 1344 1143 935 668 332 572
254 266 338 422 561 588 697 722 736 841 768 851 832 973 1188 1352 1673 1752 1713 1650 1609 1523 1542 1533 1515 1501 1480 1367 1181 1085 1017 971 982 1034 1084 1035 994 1030 1205 1374 1416 1314
Wind_Speed
10 10 8 8 7 7 6 5 5 4 4 4 4 5 4 5 5 5 6 6 5 4 5 4 5 6 6 6 5 6 6 6 7 6 6 6 8 8 9 10 9 8
11 11 11 10 10 9 8 6 5 5 5 5 5 6 6 6 6 4 5 6 5 4 4 3 3 4 5 5 4 4 5 5 6 6 6 7 8 8 9 9 8 8
12 12 11 10 10 9 8 8 8 6 6 5 7 7 6 6 6 6 5 5 5 4 3 3 3 3 4 4 4 4 4 5 6 7 6 6 7 8 9 9 9 8
12 11 12 12 11 9 9 9 10 9 9 8 6 7 7 7 6 5 6 5 5 5 4 3 3 3 3 3 4 4 5 5 5 6 7 7 7 7 9 8 9 9
13 13 13 13 12 11 11 10 9 10 9 8 8 8 8 8 7 6 5 6 6 6 5 4 4 3 3 3 3 3 5 5 5 4 5 7 7 7 8 8 9 10
15 16 15 14 13 12 11 10 10 9 9 10 8 9 9 8 8 7 6 6 7 6 5 5 4 4 4 4 3 3 3 4 5 4 5 6 7 6 7 8 9 9
12 16 15 15 13 12 12 11 11 10 9 9 11 10 9 9 9 8 7 6 6 7 6 6 5 5 5 5 4 3 4 3 4 4 5 6 6 7 7 8 9 8
10 14 16 16 13 12 12 12 12 11 10 10 10 10 11 9 9 9 9 7 6 6 6 6 6 6 6 7 6 5 5 5 4 4 4 6 5 6 8 7 7 8
12 13 15 16 14 13 12 12 12 11 11 10 9 9 11 11 11 10 10 9 8 7 7 7 6 6 7 7 8 7 7 7 6 5 5 5 5 6 7 7 7 7
17 14 13 16 16 15 12 12 12 11 12 11 10 10 9 10 11 11 11 9 8 8 8 8 7 7 8 7 7 8 8 8 8 7 7 6 6 6 6 6 6 7
22 21 16 15 15 15 12 12 11 10 11 9 10 9 9 9 11 11 11 10 8 8 8 8 8 7 7 7 8 9 8 8 8 8 8 7 7 7 6 6 6 5
16 19 18 20 23 24 21 17 12 11 11 10 10 8 9 9 8 10 10 9 9 9 8 8 8 8 7 6 6 7 8 9 9 9 8 8 8 7 8 7 7 6
20 22 19 16 18 20 22 24 22 19 15 13 13 10 9 9 8 7 8 9 9 9 10 9 9 9 8 7 6 7 7 8 9 10 10 10 9 8 7 7 7 8
23 23 20 16 18 20 21 21 22 22 23 22 21 18 14 11 8 7 6 8 9 10 10 11 11 11 10 9 8 8 8 9 9 10 10 10 10 10 9 8 8 8
24 24 22 19 19 20 20 22 22 22 23 23 23 20 17 16 14 11 8 7 8 10 11 13 13 12 13 13 11 10 10 9 10 10 10 10 10 10 10 10 10 10
24 25 23 22 20 19 19 19 19 21 23 23 23 21 20 18 18 16 13 10 9 9 11 13 14 15 14 12 12 12 11 10 10 10 11 11 11 11 11 11 11 11
23 23 24 22 21 20 19 17 16 17 20 23 25 23 20 20 20 18 16 15 12 10 9 11 12 14 12 12 11 10 12 12 11 11 12 12 12 12 12 12 13 13
24 24 24 23 23 22 22 21 20 19 20 23 25 24 22 21 21 19 18 17 15 12 11 10 11 11 12 12 11 9 10 12 12 12 13 14 14 14 14 15 14 14
24 25 26 26 25 26 28 28 25 22 21 24 25 27 26 23 22 23 22 19 16 15 12 12 13 12 12 12 12 10 8 10 14 14 14 14 15 16 16 16 16 16
20 25 30 31 29 27 28 27 26 24 24 25 27 29 27 25 23 22 22 22 20 17 nan 14 15 14 14 14 14 13 11 13 15 15 15 15 16 16 17 17 18 18
16 18 24 30 31 28 27 25 25 26 26 26 27 26 26 26 25 24 23 22 21 21 21 21 20 19 16 15 15 16 15 17 17 17 17 17 17 18 18 18 18 19
16 17 21 26 28 29 28 27 26 25 24 24 25 25 26 27 27 26 25 24 23 23 24 25 29 39 37 31 25 26 28 25 23 22 21 20 20 20 19 19 19 19
19 18 20 23 24 24 27 29 29 28 27 24 23 23 24 25 26 27 27 27 26 26 26 27 29 35 39 37 34 30 29 27 24 21 19 18 19 22 23 22 21 19
25 22 22 22 19 19 23 25 24 23 20 20 20 20 21 23 26 28 28 28 27 26 27 29 30 29 32 34 35 34 33 31 28 26 23 nan nan 21 23 23 22 17
27 24 23 22 19 19 22 23 20 18 18 17 15 15 16 18 20 22 25 27 27 27 27 28 30 30 29 28 28 31 34 34 33 30 28 25 25 24 24 24 23 22
30 28 26 25 23 22 24 26 25 22 21 19 16 15 15 16 16 17 19 23 27 28 28 29 30 33 32 28 28 28 31 34 33 34 29 28 28 27 27 25 24 23
Wind_Direction
210 211 220 213 207 195 199 194 177 176 172 181 177 161 148 130 126 115 109 115 113 111 113 116 114 112 119 119 116 115 112 117 125 138 133 141 137 140 138 138 144 138
212 212 219 216 216 210 207 203 200 193 182 189 189 191 170 158 133 132 124 123 128 121 127 127 122 113 116 120 125 121 125 131 123 152 150 147 142 147 137 139 147 148
220 217 224 227 223 224 224 209 211 201 195 188 198 204 193 171 155 154 147 135 136 139 144 144 141 128 119 126 129 120 116 126 130 144 154 141 150 145 133 137 149 154
229 230 230 232 227 230 230 223 211 207 199 198 192 204 208 194 181 171 166 152 159 156 162 172 152 154 149 141 140 127 125 118 125 146 149 153 155 150 141 151 155 157
239 234 235 236 232 228 230 231 221 213 204 193 191 197 207 205 210 196 186 176 181 172 171 170 172 167 179 166 157 136 135 121 133 142 137 137 145 152 149 161 163 165
231 230 230 238 240 239 234 234 228 222 210 200 187 196 201 207 217 219 214 202 191 183 175 174 173 170 185 184 182 153 139 127 130 135 127 126 132 145 155 163 167 170
233 230 231 232 236 241 241 235 230 225 218 207 203 197 199 205 212 222 233 225 207 191 182 179 174 172 183 192 194 181 166 162 154 142 127 122 130 132 144 156 164 166
229 227 229 230 232 237 239 236 231 227 223 217 211 203 207 206 209 215 224 237 227 207 192 186 181 177 184 196 191 189 186 190 176 169 150 133 140 129 130 143 151 154
237 225 223 224 225 230 237 235 229 223 224 227 221 214 212 212 214 214 223 232 233 227 215 200 191 185 190 198 195 195 193 193 194 194 183 165 160 145 136 142 143 146
234 228 226 219 216 218 227 232 226 219 223 225 229 227 224 217 221 223 227 231 234 235 232 223 212 199 196 196 198 199 198 198 197 196 195 189 182 175 164 162 150 154
230 230 224 221 218 217 224 232 230 222 219 224 232 233 234 235 229 231 240 241 243 243 239 236 234 226 212 203 201 203 203 204 205 203 200 196 192 190 187 190 181 172
243 241 229 224 221 217 215 219 234 232 217 213 224 232 236 240 246 243 246 256 257 257 256 252 248 246 242 229 222 216 212 210 212 213 209 207 202 199 198 203 201 189
248 246 241 228 220 220 222 221 222 233 232 214 211 215 227 230 237 251 248 254 261 264 268 268 264 260 256 254 247 238 231 223 217 217 216 212 207 201 201 207 208 208
238 243 243 231 218 214 217 221 226 227 235 232 224 216 211 214 223 230 237 245 250 253 257 260 264 263 261 258 253 250 243 233 229 226 223 218 211 207 205 204 210 215
236 239 240 239 228 221 215 215 220 228 232 236 232 226 223 216 212 213 218 221 231 244 246 247 252 255 254 255 252 247 244 242 239 236 234 228 221 217 214 209 208 212
235 237 241 241 239 230 223 219 218 222 230 235 236 231 223 223 223 217 211 210 214 227 238 245 247 246 253 276 269 253 247 241 240 240 239 235 231 225 220 221 216 215
233 237 241 244 239 237 235 230 224 227 231 233 234 231 224 220 224 227 223 216 212 216 229 241 249 251 272 277 281 285 258 246 243 238 238 239 237 234 227 223 221 219
234 234 236 236 234 234 235 234 233 231 232 236 235 233 226 222 221 225 230 230 226 219 220 230 239 257 280 281 285 288 272 250 242 237 235 236 235 235 233 231 227 225
225 235 235 233 232 230 226 224 224 227 233 237 236 234 232 228 223 222 224 230 237 237 232 231 233 246 264 271 271 271 271 253 237 236 234 233 235 235 235 234 232 230
222 233 234 233 234 231 225 221 221 221 224 230 233 235 237 236 235 228 224 225 230 239 nan 244 242 240 256 263 264 262 255 248 231 235 235 232 234 236 237 237 238 237
221 225 230 229 227 224 222 221 222 223 225 231 234 233 232 235 237 237 234 233 229 230 236 242 243 241 248 255 260 265 258 252 236 236 239 239 239 239 239 240 242 243
230 224 223 223 222 219 219 220 224 228 232 236 241 239 234 234 234 239 242 242 239 236 234 236 244 247 246 243 245 249 251 250 242 235 233 235 240 245 247 248 249 251
238 231 229 224 216 214 220 222 223 224 226 233 240 242 241 239 239 239 242 244 243 243 244 243 243 248 254 255 253 259 258 255 257 253 247 243 243 247 250 251 251 255
237 232 229 231 231 227 227 225 220 221 225 230 235 241 245 246 245 244 242 241 241 244 249 250 249 250 255 261 270 272 266 257 253 254 250 nan nan 243 247 251 254 254
252 249 245 243 241 238 242 246 236 230 227 224 232 247 252 248 247 247 242 239 241 245 252 252 252 257 263 263 267 272 267 260 260 256 254 250 249 243 243 243 246 254
251 253 256 257 253 250 248 253 254 248 245 246 240 247 250 251 253 255 250 246 250 253 251 250 252 256 265 274 271 273 271 263 260 259 256 255 252 249 245 245 247 248